Location: Mahannah Oil Field
(37.4664°N, 96.6003°W)
Time: 14:11:41
(UTC+00:00)

Vanguard 1 - All Passes

Search period start: 23 January 2021 00:00
Search period end: 02 February 2021 00:00
Orbit: 648 x 3834 km, 34.3° (Epoch: 22 January)

Date Brightness Start Highest point End Pass type
(mag) Time Alt. Az. Time Alt. Az. Time Alt. Az.
23 Jan - 01:17:00 10° WNW 01:38:57 56° SSW 01:53:19 10° SE visible
23 Jan - 03:48:16 10° W 04:00:03 20° SW 04:08:41 10° SSW visible
23 Jan - 16:09:11 10° SSE 16:19:05 20° SE 16:32:01 10° E daylight
23 Jan - 18:24:31 10° SW 18:40:50 55° SSE 19:03:14 10° ENE daylight
23 Jan - 20:45:58 10° WSW 21:07:01 79° S 21:29:40 10° E daylight
23 Jan - 23:11:07 10° W 23:34:48 77° SSW 23:53:27 10° ESE daylight
24 Jan - 01:38:49 10° WNW 01:59:40 47° SW 02:13:30 10° SSE visible
24 Jan - 04:13:03 10° W 04:20:02 13° WSW 04:25:51 10° SSW visible
24 Jan - 16:27:43 10° S 16:39:13 28° SE 16:55:20 10° E daylight
24 Jan - 18:44:56 10° SW 19:01:48 63° SSE 19:24:54 10° E daylight
24 Jan - 21:07:09 10° W 21:28:39 81° S 21:51:02 10° E daylight
24 Jan - 23:32:39 10° W 23:56:12 72° SSW 00:14:20 10° ESE visible
25 Jan - 02:00:51 10° WNW 02:20:11 39° SW 02:33:23 10° SSE visible
25 Jan - 16:47:00 10° SSW 16:59:28 36° SE 17:17:53 10° E daylight
25 Jan - 19:05:34 10° WSW 19:22:58 70° SSE 19:46:29 10° E daylight
25 Jan - 21:28:26 10° W 21:50:18 82° S 22:12:22 10° E daylight
25 Jan - 23:54:12 10° W 00:17:26 65° SSW 00:35:02 10° SE visible
26 Jan - 02:23:14 10° W 02:40:32 31° SW 02:52:50 10° S visible
26 Jan - 14:56:42 10° SE 14:59:56 11° ESE 15:03:32 10° ESE daylight
26 Jan - 17:06:47 10° SSW 17:19:55 45° SE 17:40:00 10° ENE daylight
26 Jan - 19:26:23 10° WSW 19:44:18 75° SSE 20:08:03 10° E daylight
26 Jan - 21:49:45 10° W 22:11:57 80° S 22:33:37 10° ESE daylight
27 Jan - 00:15:49 10° WNW 00:38:29 57° SSW 00:55:31 10° SE visible
27 Jan - 02:46:14 10° W 03:00:43 23° SW 03:11:39 10° S visible
27 Jan - 15:12:21 10° SSE 15:19:54 18° SE 15:29:52 10° E daylight
27 Jan - 17:26:52 10° SW 17:40:33 53° SE 18:01:54 10° ENE daylight
27 Jan - 19:47:21 10° WSW 20:05:46 79° S 20:29:36 10° E daylight
27 Jan - 22:11:07 10° W 22:33:32 77° SSW 22:54:44 10° ESE daylight
28 Jan - 00:37:32 10° WNW 00:59:19 49° SW 01:15:44 10° SSE visible
28 Jan - 03:10:31 10° W 03:20:49 16° WSW 03:29:16 10° SSW visible
28 Jan - 15:30:43 10° S 15:39:57 25° SE 15:53:23 10° E daylight
28 Jan - 17:47:14 10° SW 18:01:24 61° SSE 18:23:40 10° E daylight
28 Jan - 20:08:25 10° W 20:27:21 81° S 20:51:07 10° E daylight
28 Jan - 22:32:30 10° W 22:55:00 72° SSW 23:15:43 10° ESE daylight
29 Jan - 00:59:28 10° WNW 01:19:58 41° SW 01:35:38 10° SSE visible
29 Jan - 15:49:58 10° SSW 16:00:07 33° SE 16:16:01 10° E daylight
29 Jan - 18:07:49 10° WSW 18:22:27 69° SSE 18:45:22 10° E daylight
29 Jan - 20:29:34 10° W 20:48:59 81° S 21:12:36 10° E daylight
29 Jan - 22:53:56 10° W 23:16:19 65° SSW 23:36:29 10° SE daylight
30 Jan - 01:21:43 10° W 01:40:27 33° SW 01:55:05 10° S visible
30 Jan - 16:09:42 10° SSW 16:20:28 42° SE 16:38:12 10° ENE daylight
30 Jan - 18:28:34 10° WSW 18:43:40 75° SSE 19:07:03 10° E daylight
30 Jan - 20:50:45 10° W 21:10:36 80° S 21:33:58 10° ESE daylight
30 Jan - 23:15:24 10° WNW 23:37:28 58° SSW 23:57:02 10° SE daylight
31 Jan - 01:44:34 10° W 02:00:48 25° SW 02:13:57 10° S visible
31 Jan - 14:16:14 10° SSE 14:21:20 14° ESE 14:27:44 10° E daylight
31 Jan - 16:29:47 10° SW 16:41:00 51° SE 17:00:08 10° ENE daylight
31 Jan - 18:49:27 10° WSW 19:05:03 79° S 19:28:44 10° E daylight
31 Jan - 21:11:58 10° W 21:32:10 76° SSW 21:55:13 10° ESE daylight
31 Jan - 23:37:00 10° WNW 23:58:26 50° SW 00:17:17 10° SSE visible
01 Feb - 02:08:32 10° W 02:21:03 18° SW 02:31:44 10° SSW visible
01 Feb - 14:34:14 10° S 14:41:20 21° SE 14:51:35 10° E daylight
01 Feb - 16:50:07 10° SW 17:01:44 60° SSE 17:21:58 10° E daylight
01 Feb - 19:10:25 10° W 19:26:31 81° S 19:50:23 10° E daylight
01 Feb - 21:33:13 10° W 21:53:39 71° SSW 22:16:18 10° ESE daylight
